Location: Shepherdstown, WV
(39.4326°N, 77.8042°W)
Time: 22:20:41
(UTC-04:00)

Vanguard 1 Rocket - Pass Details

Date: 09 August 2021
Orbit: 650 x 4226 km, 34.3° (Epoch: 16 September)

Event Time Altitude Azimuth Distance (km) Brightness Sun altitude
Rises 04:50:23 0° 182° (S) 7,714 11.8 -15.7°
Reaches altitude 10° 04:58:32 10° 166° (SSE) 7,137 11.7 -14.4°
Maximum altitude 05:12:55 19° 131° (SE) 6,678 12.0 -12.1°
Drops below altitude 10° 05:26:53 10° 96° (E) 7,071 12.8 -9.8°
Sets 05:34:31 0° 81° (E) 7,648 13.7 -8.5°
